Middletown, OH

6:30 PM EDT on June 23, 2017 (GMT -0400)
Hook Field Municipal

Weather History for KMWO - May, 2013

Change the Weather History Date:

Wednesday, May 1, 2013

  Actual Average (KFFO) Record (KFFO)
Temperature  
Mean Temperature 65 °F -  
Max Temperature 81 °F 67 °F 86 °F (2001)
Min Temperature 49 °F 45 °F 33 °F (2005)
Growing Degree Days 15 (Base 50)    
Moisture  
Dew Point 58 °F    
Average Humidity 77    
Maximum Humidity 100    
Minimum Humidity 47    
Precipitation  
Precipitation 0.00 in - - ()
Sea Level Pressure  
Sea Level Pressure 30.15 in    
Wind  
Wind Speed 3 mph (East)    
Max Wind Speed 13 mph    
Max Gust Speed -    
Visibility 10 miles    
Events      
Averages and records for this station are not official NWS values.
T = Trace of Precipitation, MM = Missing Value Source: NWS Daily Summary

Daily Weather History Graph

Daily Weather History Graph

Search for Another Location

Airport or City:

Trip Planner

Search our weather history database for the weather conditions in past years. The results will help you decide how hot, cold, wet, or windy it might be!

Date:

Astronomy

May. 01, 2013 Rise Set
Actual Time 6:38 AM EDT 8:31 PM EDT
Civil Twilight 6:09 AM EDT 9:00 PM EDT
Nautical Twilight 5:33 AM EDT 9:36 PM EDT
Astronomical Twilight 4:55 AM EDT 10:14 PM EDT
Moon 1:40 AM EDT (5/1) 12:15 PM EDT (5/1)
Length of Visible Light 14h 51m
Length of Day
13h 53m
Waning Gibbous, 59% of the Moon is Illuminated
May 1
Waning Gibbous
May 2
Last Quarter
May 9
New
May 18
First Quarter
May 25
Full

Hourly Weather History & Observations

Time (EDT) Temp. Heat Index Dew Point Humidity Pressure Visibility Wind Dir Wind Speed Gust Speed Precip Events Conditions
12:15 AM 55.4 °F - 55.0 °F 99% 30.08 in 10.0 mi Calm Calm - N/A   Clear
12:35 AM 55.4 °F - 54.9 °F 98% 30.08 in 10.0 mi Calm Calm - N/A   Clear
12:55 AM 54.1 °F - 53.6 °F 98% 30.09 in 10.0 mi Calm Calm - N/A   Clear
1:15 AM 55.4 °F - 55.2 °F 99% 30.09 in - Calm Calm - N/A   Unknown
1:35 AM 52.7 °F - 52.7 °F 100% 30.09 in 10.0 mi Calm Calm - N/A   Clear
1:55 AM 52.7 °F - 52.7 °F 100% 30.08 in 10.0 mi Calm Calm - N/A   Clear
2:15 AM 52.7 °F - 52.7 °F 100% 30.08 in 10.0 mi North 3.5 mph - N/A   Clear
2:35 AM 52.7 °F - 52.7 °F 100% 30.08 in 10.0 mi NE 3.5 mph - N/A   Clear
2:55 AM 52.7 °F - 52.7 °F 100% 30.08 in 10.0 mi Calm Calm - N/A   Clear
3:15 AM 52.7 °F - 52.7 °F 100% 30.09 in 10.0 mi Calm Calm - N/A   Clear
3:35 AM 52.7 °F - 52.7 °F 100% 30.09 in 10.0 mi Calm Calm - N/A   Clear
4:15 AM 52.7 °F - 52.7 °F 100% 30.10 in 10.0 mi NNE 3.5 mph - N/A   Clear
4:35 AM 52.2 °F - 52.2 °F 100% 30.11 in 10.0 mi Calm Calm - N/A   Clear
4:55 AM 52.7 °F - 52.7 °F 100% 30.11 in 10.0 mi Calm Calm - N/A   Clear
5:15 AM 52.7 °F - 52.7 °F 100% 30.12 in 10.0 mi Calm Calm - N/A   Clear
5:35 AM 50.2 °F - 50.2 °F 100% 30.12 in - North 3.5 mph - N/A   Unknown
5:55 AM 51.1 °F - 51.1 °F 100% 30.13 in 10.0 mi Calm Calm - N/A   Clear
6:15 AM 49.8 °F - 49.8 °F 100% 30.13 in 7.0 mi Calm Calm - N/A   Clear
6:35 AM 50.2 °F - 50.2 °F 100% 30.14 in 10.0 mi NNE 3.5 mph - N/A   Clear
6:55 AM 50.9 °F - 50.9 °F 100% 30.14 in 7.0 mi Calm Calm - N/A   Clear
7:15 AM 50.9 °F - 50.9 °F 100% 30.15 in 10.0 mi North 3.5 mph - N/A   Clear
7:35 AM 52.7 °F - 52.7 °F 100% 30.15 in 10.0 mi NE 3.5 mph - N/A   Clear
7:55 AM 55.2 °F - 55.2 °F 100% 30.16 in 10.0 mi NE 3.5 mph - N/A   Clear
8:15 AM 55.4 °F - 55.4 °F 100% 30.17 in 10.0 mi NE 4.6 mph - N/A   Clear
8:35 AM 57.7 °F - 57.2 °F 98% 30.18 in 10.0 mi NE 4.6 mph - N/A   Clear
9:15 AM 62.6 °F - 58.5 °F 86% 30.19 in 10.0 mi NE 3.5 mph - N/A   Clear
9:35 AM 67.6 °F - 61.7 °F 81% 30.19 in 10.0 mi NE 4.6 mph - N/A   Clear
9:55 AM 67.6 °F - 60.8 °F 79% 30.19 in 10.0 mi NNE 4.6 mph - N/A   Clear
10:15 AM 69.1 °F - 61.3 °F 76% 30.19 in 10.0 mi Calm Calm - N/A   Clear
10:35 AM 72.7 °F - 63.0 °F 71% 30.19 in 10.0 mi Calm Calm - N/A   Clear
11:15 AM 73.9 °F - 61.0 °F 64% 30.20 in 10.0 mi Calm Calm - N/A   Clear
11:35 AM 75.2 °F - 62.2 °F 64% 30.20 in 10.0 mi East 3.5 mph - N/A   Clear
11:55 AM 75.2 °F - 61.9 °F 63% 30.20 in 10.0 mi East 4.6 mph - N/A   Clear
12:15 PM 77.9 °F - 63.5 °F 61% 30.19 in 10.0 mi ESE 6.9 mph - N/A   Clear
12:35 PM 77.9 °F - 63.5 °F 61% 30.19 in 10.0 mi SE 6.9 mph - N/A   Clear
12:55 PM 77.9 °F - 62.4 °F 59% 30.18 in 10.0 mi ESE 6.9 mph - N/A   Clear
1:15 PM 79.0 °F - 62.2 °F 56% 30.18 in 10.0 mi SE 9.2 mph - N/A   Clear
1:35 PM 79.0 °F - 63.3 °F 59% 30.18 in 10.0 mi SE 9.2 mph - N/A   Clear
1:55 PM 79.5 °F - 61.9 °F 55% 30.18 in 10.0 mi SE 8.1 mph - N/A   Scattered Clouds
2:15 PM 80.2 °F 81.3 °F 61.7 °F 53% 30.17 in 10.0 mi East 12.7 mph - N/A   Scattered Clouds
2:35 PM 80.2 °F 81.0 °F 60.1 °F 50% 30.18 in 10.0 mi ESE 9.2 mph - N/A   Scattered Clouds
2:55 PM 80.4 °F 81.2 °F 60.1 °F 50% 30.17 in 10.0 mi ESE 4.6 mph - N/A   Clear
3:15 PM 80.2 °F 80.8 °F 58.8 °F 48% 30.17 in 10.0 mi SE 4.6 mph - N/A   Clear
3:35 PM 80.4 °F 81.1 °F 59.5 °F 49% 30.17 in 10.0 mi East 9.2 mph - N/A   Mostly Cloudy
3:55 PM 79.5 °F - 59.4 °F 50% 30.17 in 10.0 mi ESE 6.9 mph - N/A   Scattered Clouds
4:15 PM 81.1 °F 81.6 °F 59.7 °F 48% 30.17 in 10.0 mi ESE 6.9 mph - N/A   Scattered Clouds
4:35 PM 80.6 °F 81.2 °F 59.7 °F 49% 30.17 in 10.0 mi ESE 11.5 mph - N/A   Scattered Clouds
5:15 PM 81.3 °F 81.7 °F 59.2 °F 47% 30.17 in 10.0 mi East 10.4 mph - N/A   Clear
5:35 PM 80.8 °F 81.3 °F 59.4 °F 48% 30.17 in 10.0 mi ESE 10.4 mph - N/A   Scattered Clouds
5:55 PM 80.8 °F 81.2 °F 58.6 °F 47% 30.17 in 10.0 mi East 10.4 mph - N/A   Scattered Clouds
6:15 PM 80.2 °F 80.8 °F 58.8 °F 48% 30.17 in 10.0 mi ESE 9.2 mph - N/A   Scattered Clouds
6:35 PM 80.2 °F 80.7 °F 58.3 °F 47% 30.16 in 10.0 mi ESE 6.9 mph - N/A   Clear
6:55 PM 80.2 °F 80.7 °F 58.5 °F 47% 30.16 in 10.0 mi ESE 4.6 mph - N/A   Clear
7:15 PM 79.0 °F - 57.0 °F 47% 30.16 in 10.0 mi ESE 8.1 mph - N/A   Clear
7:35 PM 77.9 °F - 57.7 °F 50% 30.16 in 10.0 mi East 5.8 mph - N/A   Clear
7:55 PM 77.9 °F - 58.8 °F 52% 30.16 in 10.0 mi ESE 4.6 mph - N/A   Clear
8:15 PM 77.2 °F - 58.5 °F 52% 30.16 in 10.0 mi East 4.6 mph - N/A   Clear
8:35 PM 75.0 °F - 58.8 °F 57% 30.17 in 10.0 mi East 4.6 mph - N/A   Clear
8:55 PM 70.0 °F - 62.1 °F 76% 30.17 in 10.0 mi ENE 4.6 mph - N/A   Clear
9:35 PM 67.6 °F - 63.5 °F 87% 30.18 in 10.0 mi NNE 3.5 mph - N/A   Clear
9:55 PM 67.6 °F - 64.4 °F 89% 30.19 in 10.0 mi Calm Calm - N/A   Clear
10:35 PM 62.4 °F - 60.4 °F 93% 30.19 in 10.0 mi North 4.6 mph - N/A   Clear
10:55 PM 60.6 °F - 59.0 °F 94% 30.19 in 10.0 mi North 3.5 mph - N/A   Clear
11:15 PM 60.1 °F - 58.6 °F 95% 30.19 in 10.0 mi North 3.5 mph - N/A   Clear
11:35 PM 59.0 °F - 58.1 °F 97% 30.19 in 10.0 mi Calm Calm - N/A   Clear
11:55 PM 60.1 °F - 58.1 °F 93% 30.19 in 10.0 mi Calm Calm - N/A   Clear